Time,TemperatureF,DewpointF,PressureIn,WindDirection,WindDirectionDegrees,WindSpeedMPH,WindSpeedGustMPH,Humidity,HourlyPrecipIn,Conditions,Clouds,dailyrainin,SoftwareType,DateUTC
2013-07-21 00:27:00,56.0,54.6,29.88,North,354,1.0,5.0,95,0.00,,---,0.00,VWS V14.01,2013-07-21 08:27:00,
2013-07-21 00:57:00,55.7,54.6,29.88,SSE,157,3.0,6.0,96,0.04,,---,0.04,VWS V14.01,2013-07-21 08:57:00,
2013-07-21 01:27:00,55.5,54.4,29.88,WSW,239,1.0,6.0,96,0.08,,---,0.08,VWS V14.01,2013-07-21 09:27:00,
2013-07-21 01:57:00,55.4,54.6,29.88,East,96,2.0,11.0,97,0.13,,---,0.13,VWS V14.01,2013-07-21 09:57:00,
2013-07-21 02:27:00,55.1,54.3,29.87,East,97,1.0,5.0,97,0.15,,---,0.19,VWS V14.01,2013-07-21 10:27:00,
2013-07-21 02:57:00,55.0,54.2,29.87,SE,143,0.0,3.0,97,0.11,,---,0.19,VWS V14.01,2013-07-21 10:57:00,
2013-07-21 03:27:00,54.7,53.9,29.87,SE,137,2.0,3.0,97,0.06,,---,0.19,VWS V14.01,2013-07-21 11:27:00,
2013-07-21 03:57:00,54.5,53.7,29.87,SW,226,1.0,3.0,97,0.00,,---,0.19,VWS V14.01,2013-07-21 11:57:00,
2013-07-21 04:27:00,54.2,53.4,29.88,SW,226,2.0,5.0,97,0.00,,---,0.19,VWS V14.01,2013-07-21 12:27:00,
2013-07-21 04:57:00,54.2,53.7,29.87,WSW,246,5.0,7.0,98,0.00,,---,0.19,VWS V14.01,2013-07-21 12:57:00,
2013-07-21 05:27:00,54.0,53.5,29.87,SW,221,6.0,10.0,98,0.00,,---,0.19,VWS V14.01,2013-07-21 13:27:00,
2013-07-21 05:57:00,54.1,53.5,29.87,SW,231,3.0,8.0,98,0.00,,---,0.19,VWS V14.01,2013-07-21 13:57:00,
2013-07-21 06:27:00,54.4,53.6,29.87,SW,218,4.0,8.0,97,0.00,,---,0.19,VWS V14.01,2013-07-21 14:27:00,
2013-07-21 06:57:00,55.4,54.3,29.86,SW,214,1.0,7.0,96,0.00,,---,0.19,VWS V14.01,2013-07-21 14:57:00,
2013-07-21 07:27:00,55.3,53.9,29.87,SE,141,0.0,3.0,95,0.00,,---,0.19,VWS V14.01,2013-07-21 15:27:00,
2013-07-21 07:57:00,55.3,54.2,29.86,SW,221,0.0,4.0,96,0.00,,---,0.19,VWS V14.01,2013-07-21 15:57:00,
2013-07-21 08:27:00,55.0,53.9,29.87,West,281,2.0,7.0,96,0.00,,---,0.19,VWS V14.01,2013-07-21 16:27:00,
2013-07-21 08:57:00,55.3,54.2,29.87,SSW,205,3.0,8.0,96,0.00,,---,0.19,VWS V14.01,2013-07-21 16:57:00,
2013-07-21 09:27:00,55.4,54.3,29.87,SSE,166,1.0,5.0,96,0.00,,---,0.19,VWS V14.01,2013-07-21 17:27:00,
2013-07-21 09:57:00,55.7,54.6,29.88,SW,214,2.0,7.0,96,0.00,,---,0.19,VWS V14.01,2013-07-21 17:57:00,
2013-07-21 10:27:00,55.7,54.6,29.87,SW,219,4.0,9.0,96,0.00,,---,0.19,VWS V14.01,2013-07-21 18:27:00,
2013-07-21 10:57:00,55.8,54.7,29.88,SW,231,1.0,9.0,96,0.00,,---,0.19,VWS V14.01,2013-07-21 18:57:00,
2013-07-21 11:27:00,56.4,55.3,29.88,West,262,4.0,8.0,96,0.00,,---,0.19,VWS V14.01,2013-07-21 19:27:00,
2013-07-21 11:57:00,56.5,55.4,29.88,SW,233,7.0,12.0,96,0.00,,---,0.19,VWS V14.01,2013-07-21 19:57:00,
2013-07-21 12:27:00,57.6,56.5,29.88,WNW,302,1.0,10.0,96,0.00,,---,0.19,VWS V14.01,2013-07-21 20:27:00,
2013-07-21 12:57:00,57.1,55.1,29.88,SW,221,2.0,10.0,93,0.00,,---,0.19,VWS V14.01,2013-07-21 20:57:00,
2013-07-21 13:27:00,57.8,56.1,29.89,SW,235,1.0,8.0,94,0.00,,---,0.19,VWS V14.01,2013-07-21 21:27:00,
2013-07-21 13:57:00,58.6,55.7,29.89,SSE,155,3.0,5.0,90,0.00,,---,0.19,VWS V14.01,2013-07-21 21:57:00,
2013-07-21 14:27:00,57.9,55.6,29.89,SE,125,3.0,6.0,92,0.00,,---,0.19,VWS V14.01,2013-07-21 22:27:00,
2013-07-21 14:57:00,57.8,55.5,29.90,SE,143,1.0,6.0,92,0.00,,---,0.19,VWS V14.01,2013-07-21 22:57:00,
2013-07-21 15:27:00,56.5,54.5,29.90,SW,224,1.0,6.0,93,0.00,,---,0.19,VWS V14.01,2013-07-21 23:27:00,
2013-07-21 15:57:00,57.0,55.3,29.90,WSW,238,3.0,5.0,94,0.00,,---,0.19,VWS V14.01,2013-07-21 23:57:00,
2013-07-21 16:27:00,56.2,54.5,29.90,SE,127,0.0,7.0,94,0.00,,---,0.19,VWS V14.01,2013-07-22 00:27:00,
2013-07-21 16:57:00,56.5,55.1,29.90,SE,143,1.0,6.0,95,0.00,,---,0.19,VWS V14.01,2013-07-22 00:57:00,
2013-07-21 17:27:00,56.0,54.9,29.91,SSW,195,2.0,4.0,96,0.00,,---,0.19,VWS V14.01,2013-07-22 01:27:00,
2013-07-21 17:57:00,55.7,54.6,29.91,WSW,255,4.0,4.0,96,0.00,,---,0.19,VWS V14.01,2013-07-22 01:57:00,
2013-07-21 18:27:00,55.1,54.3,29.91,SSW,198,0.0,8.0,97,0.00,,---,0.19,VWS V14.01,2013-07-22 02:27:00,
2013-07-21 18:57:00,54.9,54.1,29.91,SSW,198,2.0,5.0,97,0.00,,---,0.19,VWS V14.01,2013-07-22 02:57:00,
2013-07-21 19:27:00,54.3,53.5,29.91,SSE,152,2.0,6.0,97,0.00,,---,0.19,VWS V14.01,2013-07-22 03:27:00,
2013-07-21 19:57:00,54.0,53.5,29.92,SW,225,2.0,4.0,98,0.00,,---,0.19,VWS V14.01,2013-07-22 03:57:00,
2013-07-21 20:27:00,54.1,53.5,29.92,South,191,0.0,6.0,98,0.00,,---,0.19,VWS V14.01,2013-07-22 04:27:00,
2013-07-21 20:57:00,53.9,53.3,29.92,WSW,242,1.0,6.0,98,0.00,,---,0.19,VWS V14.01,2013-07-22 04:57:00,
2013-07-21 21:27:00,53.7,53.2,29.93,SSW,210,0.0,4.0,98,0.00,,---,0.19,VWS V14.01,2013-07-22 05:27:00,
2013-07-21 21:57:00,53.7,53.2,29.93,South,190,1.0,4.0,98,0.00,,---,0.19,VWS V14.01,2013-07-22 05:57:00,
2013-07-21 22:27:00,53.6,53.0,29.93,SW,217,1.0,3.0,98,0.00,,---,0.19,VWS V14.01,2013-07-22 06:27:00,
2013-07-21 22:57:00,53.6,53.0,29.94,NE,49,1.0,4.0,98,0.00,,---,0.19,VWS V14.01,2013-07-22 06:57:00,
2013-07-21 23:27:00,52.6,52.0,29.94,NE,49,0.0,1.0,98,0.00,,---,0.19,VWS V14.01,2013-07-22 07:27:00,
2013-07-21 23:57:00,52.8,52.2,29.94,NE,49,0.0,1.0,98,0.00,,---,0.19,VWS V14.01,2013-07-22 07:57:00,